map of VIX home
Great Circle Mapper logo
VIX - Airport
Location
City:  Vitória, Espírito Santo, Brazil
Name:Eurico de Aguiar Salles Airport
Old (Alt.):Goiabeiras Airport
ICAO / IATA:SBVT / VIX

Details
Type:Airport (Aerodrome, Airfield)
Use:Public/Civil
Latitude:20°15'29"S (-20.258055)
Longitude:40°17'11"W (-40.286388)
Elevation:10 ft (3 m)
Variation:23.63°W (WMM2015 magnetic declination)
-0.07° annual change
Runways:1
Longest:5741 × 148 ft (1750 × 45 m), paved

Time
Time Zone:UTC-3 (DST-2)
Local Time:

Weather
METAR:SBVT 040700Z 31004KT 9999 BKN045 BKN070 21/19 Q1015

Related Locations
Nearby:
Farthest:IWO: 12103 mi / 19479 km
Iwo Jima [Iwo Jima AB], Iwo Jima Island, JP

Find:

   beyond  
but within

Other Information
Maps:
NOTAMs:
Links:
Sources:

  
flag of Brazil
flag of Espírito Santo
  

Sectional Chart

Flight Planning
at skyvector.com

Satellite Image

Google Maps Satellite view

 

Copyright © 2004-2015 Karl L. Swartz. All rights reserved.
The Great Circle Mapper name and logo are trademarks of the Great Circle Mapper.
All other trademarks mentioned herein belong to their respective owners.
Please see credits for attibutions and further copyright information.

  Follow gcmap on Facebook Follow gcmap on Twitter Follow gcmap on Google+

hCard Microformat

Geo Microformat